Regional Weather Roundup
Issued by NWS Little Rock, AR

Home | Current Version | Previous Version | Text Only | Print | Product List | Glossary Off
Versions: 1 2 3 4 5 6 7 8 9 10 11 12 13 14 15 16 17 18 19 20 21 22 23 24 25 26 27 28

000
ASUS44 KLZK 301605
RWRLZK

WEATHER ROUNDUP FOR ARKANSAS
NATIONAL WEATHER SERVICE LITTLE ROCK AR
1100 AM CDT MON MAY 30 2016

NOTE: "FAIR" INDICATES FEW OR NO CLOUDS BELOW 12,000 FEET WITH NO
SIGNIFICANT WEATHER AND/OR OBSTRUCTIONS TO VISIBILITY.

ARZ001-003-010-029-301700-
NORTHWEST ARKANSAS

CITY           SKY/WX    TMP DP  RH WIND       PRES   REMARKS
FAYETTEVILLE   CLOUDY    66  66 100 NE3       30.12R
FORT SMITH     CLOUDY    73  65  75 N7        30.07F
HARRISON       CLOUDY    78  60  53 S5        30.10F
BENTONVILLE    CLOUDY    66  61  82 CALM      30.12R
ROGERS         TSTM      65  62  90 W7        30.13R
SILOAM SPGS    CLOUDY    70  59  68 W5        30.12F
HIGHFILL       LGT RAIN  67  65  93 SW5       30.12F
SPRINGDALE     LGT RAIN  66  64  94 W3        30.13F FOG
$$

ARZ004-005-016-301700-
NORTH CENTRAL ARKANSAS

CITY           SKY/WX    TMP DP  RH WIND       PRES   REMARKS
BATESVILLE     MOSUNNY   81  68  65 E6        30.07F
FLIPPIN        CLOUDY   N/A N/A N/A SE3       30.05F
MTN HOME       CLOUDY    80  63  55 SE8       30.07F
$$

ARZ040-041-301700-
WEST CENTRAL ARKANSAS

CITY           SKY/WX    TMP DP  RH WIND       PRES   REMARKS
MENA           CLOUDY    73  68  83 NE3       30.09S
MOUNT IDA      CLOUDY    74  65  73 SE5       30.05F
$$

ARZ009-017-025-026-028-301700-
NORTHEAST ARKANSAS

CITY           SKY/WX    TMP DP  RH WIND       PRES   REMARKS
CORNING        LGT RAIN  82  66  57 CALM      30.08S HX  85
JONESBORO      SUNNY     83  64  52 SE3       30.06F
NEWPORT        SUNNY     85  71  62 E3        30.07F HX  90
WALNUT RIDGE   SUNNY     81  66  61 E3        30.07S
BLYTHEVILLE    SUNNY     85  64  49 E5        30.07S HX  86
$$

ARZ022-023-033-042-044-301700-
CENTRAL ARKANSAS

CITY           SKY/WX    TMP DP  RH WIND       PRES   REMARKS
LITTLE ROCK    PTSUNNY   81  61  50 SE5       30.06F
N LITTLE ROCK    N/A     78  63  58 SE5       30.04F
JACKSONVILLE   CLOUDY    80  66  61 VRB3      30.05F
SEARCY         CLOUDY    82  65  56 E7        30.07F
HOT SPRINGS    CLOUDY    77  63  61 S5        30.07F
RUSSELLVILLE   PTSUNNY   76  64  66 CALM      30.07S
CLINTON        FAIR      75  68  78 CALM      30.08S
$$

ARZ036-301700-
EAST ARKANSAS

CITY           SKY/WX    TMP DP  RH WIND       PRES   REMARKS
WEST MEMPHIS   MOSUNNY   84  66  54 CALM      30.05F HX  86
$$

ARZ050-053-066-070-073-301700-
SOUTHWEST ARKANSAS

CITY           SKY/WX    TMP DP  RH WIND       PRES   REMARKS
ARKADELPHIA    FAIR      81  67  62 VRB3      30.06F
CAMDEN         PTSUNNY   82  63  51 S3        30.05F
TEXARKANA      CLOUDY    78  69  73 NE6       30.03F
EL DORADO      SUNNY     81  66  60 CALM      30.05F
DE QUEEN       CLOUDY    74  68  81 E6        30.03F
$$

ARZ056-057-069-301700-
SOUTHEAST ARKANSAS

CITY           SKY/WX    TMP DP  RH WIND       PRES   REMARKS
PINE BLUFF     CLOUDY    79  67  66 SE5       30.06F
STUTTGART      PTSUNNY   81  64  57 E8        30.06F
MONTICELLO     SUNNY     84  67  56 E7        30.05F HX  86

$$






USA.gov is the U.S. government's official web portal to all federal, state and local government web resources and services.